Location: Brunsen
(51.8651°N, 9.8610°E)
Time: 17:27:50
(UTC+00:00)

Helios 1A Rocket - Pass Details

Date: 23 May 2024
Orbit: 520 x 543 km, 98.3° (Epoch: 24 June)

Event Time Altitude Azimuth Distance (km) Brightness Sun altitude
Exits shadow 00:09:36 29° 156° (SSE) 1,008 3.7 -16.6°
Maximum altitude 00:11:30 79° 74° (ENE) 551 2.8 -16.5°
Drops below altitude 10° 00:15:23 10° 347° (NNW) 1,794 6.4 -16.4°
Sets 00:17:29 0° 347° (NNW) 2,685 7.5 -16.3°
